Location: Essen
(51.4609°N, 7.0127°E)
Time: 00:06:57
(UTC+01:00)

N. Korean satellite - Visible Passes

Search period start: 18 November 2017 00:00
Search period end: 28 November 2017 00:00
Orbit: 460 x 515 km, 97.2° (Epoch: 17 November)

Date Brightness Start Highest point End Pass type
(mag) Time Alt. Az. Time Alt. Az. Time Alt. Az.
18 Nov 9.9 06:19:17 10° NE 06:21:25 15° E 06:23:34 10° SE visible
18 Nov 6.9 18:32:50 10° S 18:36:20 66° W 18:39:54 10° NNW visible
19 Nov 6.4 18:09:22 10° SSE 18:12:51 66° ENE 18:16:26 10° N visible
19 Nov 10.0 19:45:29 10° WSW 19:46:50 12° W 19:48:12 10° WNW visible
20 Nov 8.1 07:04:44 10° NNE 07:08:19 42° E 07:11:54 10° S visible
20 Nov 7.1 17:46:13 10° SE 17:49:28 36° ENE 17:52:47 10° N visible
20 Nov 9.2 19:20:26 10° SW 19:23:07 20° W 19:25:52 10° NW visible
21 Nov 9.3 06:41:36 10° NE 06:44:43 25° E 06:47:50 10° SSE visible
21 Nov 7.8 17:23:22 10° ESE 17:26:08 21° ENE 17:28:56 10° NNE visible
21 Nov 8.2 18:56:12 10° SSW 18:59:28 35° W 19:02:49 10° NNW visible
22 Nov 9.9 06:18:52 10° NE 06:21:02 15° E 06:23:12 10° SE visible
22 Nov 6.9 18:32:24 10° S 18:35:54 67° WSW 18:39:31 10° NNW visible
23 Nov 6.4 18:08:54 10° SSE 18:12:25 66° ENE 18:16:01 10° N visible
23 Nov 10.0 19:44:56 10° WSW 19:46:24 12° W 19:47:51 10° WNW visible
24 Nov 8.1 07:04:17 10° NNE 07:07:54 42° E 07:11:29 10° S visible
24 Nov 7.1 17:45:43 10° SE 17:49:00 36° ENE 17:52:21 10° N visible
24 Nov 9.2 19:19:55 10° SW 19:22:39 21° W 19:25:26 10° NW visible
25 Nov 9.3 06:41:08 10° NE 06:44:17 25° E 06:47:25 10° SSE visible
25 Nov 7.8 17:22:51 10° ESE 17:25:39 22° ENE 17:28:30 10° NNE visible
25 Nov 8.2 18:55:41 10° SSW 18:58:59 36° W 19:02:23 10° NNW visible
26 Nov 9.9 06:18:23 10° NE 06:20:34 15° E 06:22:45 10° SE visible
26 Nov 6.9 18:31:51 10° S 18:35:24 67° WSW 18:39:03 10° NNW visible
27 Nov 6.9 07:27:11 10° NNE 07:30:57 78° ESE 07:34:43 10° S visible
27 Nov 6.5 18:08:20 10° SSE 18:11:54 65° ENE 18:15:32 10° N visible
27 Nov 10.0 19:44:19 10° WSW 19:45:53 12° W 19:47:25 10° WNW visible
